This demonstration page uses our WeatherBlox Daily Observations layout. Learn more.

Left ArrowRight Arrow

Hourly Observations for December 1, 2022

Temp ( °F °C ) Dew Point ( °F °C ) Humidity (%) Winds ( mph kmh ) Pressure ( in mb ) Visibility ( mi km ) Precip ( " mm )
12:53 am 00:53 Clear 28 -2.2 16 -8.9 60 60 W 7 11 30.39 1029 10 16 0.00 0.00
1:53 am 01:53 Clear 27 -2.8 15 -9.4 60 60 W 7 11 30.42 1030 10 16 0.00 0.00
2:53 am 02:53 Clear 24 -4.4 16 -8.9 71 71 W 5 7 30.45 1031 10 16 0.00 0.00
3:53 am 03:53 Clear 25 -3.9 15 -9.4 65 65 W 6 9 30.47 1032 10 16 0.00 0.00
4:53 am 04:53 Clear 20 -6.7 14 -10 77 77 WSW 3 6 30.49 1032 10 16 0.00 0.00
5:53 am 05:53 Clear 19 -7.2 14 -10 80 80 W 3 6 30.50 1033 10 16 0.00 0.00
6:53 am 06:53 Clear 20 -6.7 14 -10 77 77 W 3 6 30.55 1034 10 16 0.00 0.00
7:53 am 07:53 Sunny 18 -7.8 13 -10.6 80 80 Calm 30.57 1035 10 16 0.00 0.00
8:53 am 08:53 Sunny 25 -3.9 17 -8.3 71 71 Calm 30.59 1036 10 16 0.00 0.00
9:53 am 09:53 Sunny 27 -2.8 16 -8.9 63 63 NW 7 11 30.60 1036 10 16 0.00 0.00
10:53 am 10:53 Sunny 30 -1.1 16 -8.9 55 55 Calm 30.60 1036 10 16 0.00 0.00
11:53 am 11:53 Sunny 32 0 17 -8.3 53 53 VRB 3 6 30.59 1036 10 16 0.00 0.00
12:53 pm 12:53 Sunny 35 1.7 17 -8.3 47 47 Calm 30.56 1035 10 16 0.00 0.00
1:53 pm 13:53 Sunny 37 2.8 18 -7.8 45 45 Calm 30.54 1034 10 16 0.00 0.00
2:53 pm 14:53 Sunny 38 3.3 18 -7.8 44 44 Calm 30.53 1034 10 16 0.00 0.00
3:53 pm 15:53 Sunny 38 3.3 17 -8.3 42 42 Calm 30.50 1033 10 16 0.00 0.00
4:53 pm 16:53 Sunny 36 2.2 16 -8.9 44 44 Calm 30.51 1033 10 16 0.00 0.00
5:53 pm 17:53 Clear 30 -1.1 20 -6.7 66 66 Calm 30.49 1033 10 16 0.00 0.00
6:53 pm 18:53 Clear 28 -2.2 18 -7.8 65 65 Calm 30.48 1032 10 16 0.00 0.00
8:53 pm 20:53 Clear 25 -3.9 19 -7.2 78 78 Calm 30.46 1032 10 16 0.00 0.00
9:53 pm 21:53 Mostly Clear 24 -4.4 18 -7.8 77 77 Calm 30.44 1031 10 16 0.00 0.00
10:53 pm 22:53 Mostly Clear 26 -3.3 19 -7.2 74 74 Calm 30.42 1030 10 16 0.00 0.00
11:53 pm 23:53 Clear 24 -4.4 19 -7.2 81 81 Calm 30.41 1030 10 16 0.00 0.00

Powered by AerisWeather